DW1824 Weather Reports


time (UTC)temp
C
wind
direction
speed
KPH
gust
KPH
rain 1hr
cm
rain 24hr
cm
rain mn
cm
humidity
%
barometer
mb
20260505034338 21 137 3.2 9.7 0.00 0.00 0.00 83 1011.0
20260505033324 21 132 4.8 9.7 0.00 0.00 0.00 83 1011.1
20260505032330 22 146 3.2 12.9 0.00 0.00 0.00 82 1011.1
20260505031356 22 130 4.8 9.7 0.00 0.00 0.00 82 1011.2
20260505030337 22 136 3.2 8.0 0.00 0.00 0.00 81 1011.2
20260505025346 22 140 4.8 11.3 0.00 0.00 0.00 81 1011.0
20260505024332 22 142 4.8 8.0 0.00 0.00 0.00 81 1011.0
20260505023340 22 117 4.8 8.0 0.00 0.00 0.00 80 1011.0
20260505022329 22 141 4.8 9.7 0.00 0.00 0.00 80 1011.1
20260505021341 22 136 4.8 11.3 0.00 0.00 0.00 79 1011.0
20260505020326 22 138 4.8 11.3 0.00 0.00 0.00 78 1010.7
20260505015354 23 139 3.2 11.3 0.00 0.00 0.00 78 1010.6
20260505014336 23 164 3.2 11.3 0.00 0.00 0.00 76 1010.6
20260505013400 23 147 3.2 9.7 0.00 0.00 0.00 76 1010.5
20260505012326 23 140 4.8 11.3 0.00 0.00 0.00 75 1010.4
20260505011334 23 105 6.4 12.9 0.00 0.00 0.00 76 1010.2
20260505010340 23 141 4.8 9.7 0.00 0.00 0.00 76 1010.1
20260505005350 23 135 4.8 8.0 0.00 0.00 0.00 75 1010.3
20260505004359 24 134 4.8 6.4 0.00 0.00 0.00 74 1010.3
20260505003337 25 140 3.2 9.7 0.00 0.00 0.00 72 1010.3
20260505002322 25 159 3.2 9.7 0.00 0.00 0.00 71 1010.3
20260505001330 25 167 1.6 9.7 0.00 0.00 0.00 71 1010.3
20260505000352 25 160 4.8 17.7 0.00 0.00 0.00 69 1010.3
20260504235338 26 177 8.0 16.1 0.00 0.00 0.00 67 1010.2
20260504234325 26 158 4.8 11.3 0.00 0.00 0.00 68 1010.2
20260504233347 26 143 4.8 17.7 0.00 0.00 0.00 67 1010.6
20260504232333 25 148 4.8 12.9 0.00 0.00 0.00 69 1010.5
20260504231400 25 146 4.8 12.9 0.00 0.00 0.00 70 1010.7
20260504230326 25 203 9.7 17.7 0.00 0.00 0.00 68 1010.7
20260504225332 26 176 8.0 16.1 0.00 0.00 0.00 68 1010.8
20260504224358 26 166 4.8 16.1 0.00 0.00 0.00 69 1010.9
20260504223341 26 166 3.2 11.3 0.00 0.00 0.00 68 1011.0
20260504222327 26 160 4.8 12.9 0.00 0.00 0.00 68 1011.1
20260504221332 26 137 3.2 12.9 0.00 0.00 0.00 66 1011.0
20260504220337 26 167 4.8 14.5 0.00 0.00 0.00 66 1011.2
20260504215328 26 145 3.2 16.1 0.00 0.00 0.00 67 1011.5
20260504214334 26 192 4.8 12.9 0.00 0.00 0.00 66 1011.7
20260504213340 26 168 4.8 12.9 0.00 0.00 0.00 65 1011.7
20260504212327 26 177 6.4 14.5 0.00 0.00 0.00 64 1011.9
20260504211334 26 191 4.8 12.9 0.00 0.00 0.00 65 1012.0
20260504210339 26 139 4.8 11.3 0.00 0.00 0.00 63 1012.1
20260504205327 26 145 4.8 9.7 0.00 0.00 0.00 63 1011.9
20260504204338 26 175 3.2 11.3 0.00 0.00 0.00 64 1012.3
20260504203323 27 140 3.2 14.5 0.00 0.00 0.00 62 1012.4
20260504202327 27 164 3.2 11.3 0.00 0.00 0.00 62 1012.4
20260504201334 27 163 4.8 11.3 0.00 0.00 0.00 61 1012.6
20260504200338 26 154 3.2 12.9 0.00 0.00 0.00 60 1012.9
20260504195326 26 173 3.2 8.0 0.00 0.00 0.00 61 1013.0
20260504194333 26 144 4.8 11.3 0.00 0.00 0.00 62 1013.1
20260504193357 26 237 4.8 11.3 0.00 0.00 0.00 63 1013.3
20260504192326 26 208 3.2 11.3 0.00 0.00 0.00 62 1013.6
20260504191334 26 179 4.8 11.3 0.00 0.00 0.00 61 1013.6
20260504190341 26 150 6.4 12.9 0.00 0.00 0.00 64 1013.7
20260504185328 26 192 4.8 12.9 0.00 0.00 0.00 63 1013.7
20260504184334 26 169 3.2 8.0 0.00 0.00 0.00 62 1013.7
20260504183340 26 134 6.4 14.5 0.00 0.00 0.00 64 1014.1
20260504182331 25 192 4.8 11.3 0.00 0.00 0.00 64 1014.2
20260504181337 26 148 4.8 12.9 0.00 0.00 0.00 64 1014.3
20260504180341 26 170 6.4 14.5 0.00 0.00 0.00 62 1014.5
20260504175327 25 137 3.2 11.3 0.00 0.00 0.00 64 1014.3
20260504174354 26 181 4.8 19.3 0.00 0.00 0.00 64 1014.6
20260504173338 25 162 4.8 9.7 0.00 0.00 0.00 65 1014.9
20260504172345 25 169 6.4 12.9 0.00 0.00 0.00 65 1015.0
20260504171337 25 167 6.4 17.7 0.00 0.00 0.00 64 1015.0
20260504170400 25 134 8.0 14.5 0.00 0.00 0.00 64 1015.2
20260504160333 24 149 8.0 16.1 0.00 0.00 0.00 67 1016.0
20260504150351 22 160 3.2 12.9 0.00 0.00 0.00 71 1016.0
20260504141335 21 141 3.2 11.3 0.00 0.00 0.00 75 1016.1
20260504140339 20 137 4.8 12.9 0.00 0.00 0.00 77 1016.4
20260504130334 17 131 3.2 8.0 0.00 0.00 0.00 80 1016.2
20260504110338 15 123 1.6 3.2 0.00 0.00 0.00 82 1016.0
20260504100325 15 152 1.6 4.8 0.00 0.00 0.00 80 1015.9
20260504081341 16 147 1.6 3.2 0.00 0.00 0.00 82 1016.6
20260504080327 16 131 1.6 3.2 0.00 0.00 0.00 82 1016.6
20260504070332 16 171 0.0 0.0 0.00 0.00 0.00 84 1017.7
20260504050342 17 187 0.0 3.2 0.00 0.00 0.00 77 1018.8
20260504045326 17 165 0.0 1.6 0.00 0.00 0.00 77 1018.9
20260504044356 17 161 0.0 1.6 0.00 0.00 0.00 76 1018.8
20260504043342 17 161 0.0 1.6 0.00 0.00 0.00 76 1018.9
20260504042331 17 161 0.0 1.6 0.00 0.00 0.00 75 1018.8
20260504041402 17 161 0.0 1.6 0.00 0.00 0.00 74 1018.9
20260504040326 17 150 0.0 3.2 0.00 0.00 0.00 73 1019.1
20260504035333 18 160 0.0 1.6 0.00 0.00 0.00 73 1018.9